North Platte, NE

11:34 AM CST on December 11, 2017 (GMT -0600)
North Platte Regional-Bird

Weather History for KLBF - March, 2015

Change the Weather History Date:

Wednesday, March 4, 2015

  Actual Average Record
Temperature  
Mean Temperature 18 °F 34 °F  
Max Temperature 31 °F 49 °F 77 °F (2009)
Min Temperature 5 °F 20 °F -17 °F (1960)
Degree Days  
Heating Degree Days 47 31  
Month to date heating degree days 160 125  
Since 1 July heating degree days 5049 5153  
Cooling Degree Days 0 0  
Month to date cooling degree days 0 0  
Year to date cooling degree days 0 0  
Moisture  
Dew Point 3 °F    
Average Humidity 58    
Maximum Humidity 91    
Minimum Humidity 25    
Precipitation  
Precipitation T in 0.03 in 0.85 in (1992)
Month to date precipitation 0.01 0.11  
Year to date precipitation 0.75 0.95  
Snow  
Snow T in 0.10 in 7.00 in (1886)
Month to date snowfall 0.2 0.6  
Since 1 July snowfall 19.1 21.5  
Snow Depth 0.00 in    
Sea Level Pressure  
Sea Level Pressure 30.35 in    
Wind  
Wind Speed 10 mph (NNW)    
Max Wind Speed 29 mph    
Max Gust Speed 36 mph    
Visibility 10 miles    
Events Snow    
T = Trace of Precipitation, MM = Missing Value Source: NWS Daily Summary

Daily Weather History Graph

Daily Weather History Graph

Search for Another Location

Airport or City:

Trip Planner

Search our weather history database for the weather conditions in past years. The results will help you decide how hot, cold, wet, or windy it might be!

Date:

Astronomy

Mar. 04, 2015 Rise Set
Actual Time 7:12 AM CST 6:36 PM CST
Civil Twilight 6:45 AM CST 7:04 PM CST
Nautical Twilight 6:13 AM CST 7:36 PM CST
Astronomical Twilight 5:41 AM CST 8:08 PM CST
Moon 5:56 PM CST (3/4) 6:27 AM CST (3/4)
Length of Visible Light 12h 19m
Length of Day
11h 24m
Waxing Gibbous, 99% of the Moon is Illuminated
Mar 4
Waxing Gibbous
Mar 5
Full
Mar 13
Last Quarter
Mar 20
New
Mar 27
First Quarter

Hourly Weather History & Observations

Time (CST) Temp. Windchill Dew Point Humidity Pressure Visibility Wind Dir Wind Speed Gust Speed Precip Events Conditions
12:53 AM 16.0 °F 10.4 °F 12.0 °F 84% 30.22 in 9.0 mi North 3.5 mph - 0.00 in Snow Light Snow
1:53 AM 16.0 °F 6.3 °F 10.9 °F 81% 30.23 in 10.0 mi NNW 6.9 mph - 0.00 in   Overcast
2:53 AM 12.9 °F 5.2 °F 9.0 °F 84% 30.25 in 10.0 mi North 4.6 mph - N/A   Scattered Clouds
3:53 AM 7.0 °F -1.7 °F 3.9 °F 87% 30.26 in 10.0 mi NW 4.6 mph - N/A   Scattered Clouds
4:53 AM 6.8 °F - 3.2 °F 85% 30.16 in 10.0 mi Calm Calm - N/A   Clear
5:53 AM 7.0 °F 0.1 °F 5.0 °F 92% 30.32 in 10.0 mi NW 3.5 mph - N/A   Clear
6:53 AM 7.0 °F -1.7 °F 3.9 °F 87% 30.35 in 10.0 mi NW 4.6 mph - N/A   Partly Cloudy
7:53 AM 9.0 °F 2.4 °F 5.0 °F 84% 30.36 in 10.0 mi NW 3.5 mph - N/A   Partly Cloudy
8:53 AM 15.1 °F 3.3 °F 10.0 °F 80% 30.37 in 10.0 mi West 9.2 mph - N/A   Clear
9:53 AM 19.0 °F 8.2 °F 7.0 °F 59% 30.39 in 10.0 mi NW 9.2 mph - N/A   Clear
10:53 AM 23.0 °F 11.7 °F 3.9 °F 44% 30.38 in 10.0 mi NW 11.5 mph - N/A   Clear
11:53 AM 26.1 °F 12.0 °F 3.0 °F 37% 30.37 in 10.0 mi WNW 20.7 mph 25.3 mph N/A   Partly Cloudy
12:53 PM 27.0 °F 14.3 °F 3.9 °F 37% 30.35 in 10.0 mi West 17.3 mph 21.9 mph N/A   Clear
1:53 PM 30.0 °F 17.9 °F 1.0 °F 29% 30.32 in 10.0 mi WNW 18.4 mph 27.6 mph N/A   Scattered Clouds
2:53 PM 30.9 °F 18.4 °F -0.9 °F 26% 30.31 in 10.0 mi WNW 20.7 mph 26.5 mph N/A   Partly Cloudy
3:53 PM 30.0 °F 16.9 °F -2.0 °F 25% 30.32 in 10.0 mi NW 21.9 mph 32.2 mph N/A   Partly Cloudy
4:53 PM 30.0 °F 16.9 °F -2.9 °F 24% 30.32 in 10.0 mi NNW 21.9 mph 31.1 mph N/A   Clear
5:53 PM 27.0 °F 12.5 °F -2.0 °F 29% 30.34 in 10.0 mi NNW 23.0 mph 27.6 mph N/A   Partly Cloudy
6:53 PM 23.0 °F 13.1 °F -2.9 °F 32% 30.38 in 10.0 mi NNW 9.2 mph - N/A   Clear
7:53 PM 16.0 °F 8.8 °F -2.0 °F 45% 30.42 in 10.0 mi North 4.6 mph - N/A   Clear
8:53 PM 15.1 °F 5.2 °F -2.0 °F 47% 30.43 in 10.0 mi NNE 6.9 mph - N/A   Clear
9:53 PM 10.9 °F 2.9 °F -0.9 °F 59% 30.47 in 10.0 mi East 4.6 mph - N/A   Clear
10:53 PM 8.1 °F -0.5 °F -0.9 °F 67% 30.48 in 10.0 mi ESE 4.6 mph - N/A   Clear
11:53 PM 6.1 °F -0.9 °F -2.0 °F 69% 30.48 in 10.0 mi East 3.5 mph - N/A   Clear